Tracking 28790 objects as of 19-Apr-2024
HD Live streaming from Space Station
objects crossing your sky now

FENGYUN 1C DEB

Track FENGYUN 1C DEB now!
10-day predictions


NORAD ID: 30293
Int'l Code: 1999-025ZE
Perigee: 699.3 km
Apogee: 824.6 km
Inclination: 99.2 °
Period: 99.9 minutes
Semi major axis: 7132 km
RCS: 0.0098 m2 (small)
Launch date: May 10, 1999
Source: People's Republic of China (PRC)
Launch site: Taiyaun Space Center, China (TSC)

Note: This is SATELLITE DEBRIS
Your satellite tracking list
Your tracking list is empty




NASA's NSSDC Master Catalog

Two Line Element Set (TLE):
1 30293U 99025ZE  24110.16860275  .00009664  00000-0  28761-2 0  9996
2 30293  99.2126 241.7747 0087862  96.3490  28.0989 14.41120572902837
Source of the keplerian elements: AFSPC